Location: Lone Wolf Observatory
(41.0360°N, 89.2260°W)
Time: 22:40:24
(UTC-06:00)

Amateur Radio Satellites - All Passes

Search period start: 02 March 2015 22:10
Search period end: 03 March 2015 22:10
Location: Lone Wolf Observatory, 41.0360°N, 89.2260°W

Satellite Date Start Highest point End Downlink Frequencies (MHz)
Time Altitude Azimuth
DELFI C3 02 Mar 22:19:08 22:20:31 11° 272° (W) 22:21:40 145.870
QB50P1 02 Mar 22:24:59 22:28:40 29° 96° (E) 22:32:23 145.935-145.965
QB50P2 02 Mar 22:28:45 22:32:34 33° 96° (E) 22:36:24 145.880/145.840
TIGRISAT 02 Mar 22:30:54 22:35:09 62° 101° (E) 22:39:26 435.000
BUGSAT 1 02 Mar 22:35:01 22:38:34 27° 95° (E) 22:42:07 437.445
DUCHIFAT 1 02 Mar 22:43:35 22:47:40 46° 99° (E) 22:51:43 145.980
ANTELSAT 02 Mar 22:44:31 22:48:50 89° 278° (W) 22:53:12 437.575/2403.000
RS-15 02 Mar 22:52:11 23:02:49 64° 115° (ESE) 23:13:39 29.354- 29.394
DANDE 02 Mar 23:03:10 23:08:51 29° 95° (E) 23:13:31 436.750
POLYITAN 1 02 Mar 23:03:50 23:08:05 84° 101° (E) 23:12:18 437.675
POPSAT HIP 1 02 Mar 23:04:18 23:08:34 84° 105° (ESE) 23:12:46 437.405
VERMONT LUNAR 02 Mar 23:06:04 23:07:45 13° 213° (SSW) 23:09:22 437.305
AISAT 02 Mar 23:07:02 23:09:54 16° 269° (W) 23:12:36 437.250
CUBEBUG 1 02 Mar 23:08:33 23:12:37 34° 264° (W) 23:16:40 437.445
PHONESAT 2.4 02 Mar 23:09:37 23:12:35 23° 207° (SSW) 23:15:30 2401.200-2431.200
VELOX 1 02 Mar 23:17:17 23:19:29 13° 271° (W) 23:21:27 145.980
SWISSCUBE 02 Mar 23:26:14 23:29:09 17° 64° (ENE) 23:32:14 437.505
NANOSAT C BR1 02 Mar 23:27:34 23:31:41 52° 286° (WNW) 23:35:47 145.865
CUSAT 1 02 Mar 23:31:41 23:38:00 60° 98° (E) 23:42:46 437.405
ESTCUBE 1 02 Mar 23:32:06 23:35:21 19° 268° (W) 23:38:30 437.505/2401.250
BEESAT 02 Mar 23:34:32 23:37:43 19° 65° (ENE) 23:41:03 436.000
SPROUT 02 Mar 23:39:50 23:44:07 61° 260° (W) 23:48:25 437.525
TISAT 1 02 Mar 23:43:14 23:47:29 60° 259° (W) 23:51:44 437.305
UNISAT 6 02 Mar 23:43:20 23:46:38 21° 292° (WNW) 23:49:52 437.425
ITUPSAT 1 03 Mar 00:00:49 00:05:01 32° 69° (ENE) 00:09:18 437.325
QB50P1 03 Mar 00:01:03 00:04:27 23° 292° (WNW) 00:07:45 145.935-145.965
QB50P2 03 Mar 00:05:05 00:08:20 21° 292° (WNW) 00:11:28 145.880/145.840
TIGRISAT 03 Mar 00:09:37 00:11:29 12° 296° (WNW) 00:13:09 435.000
BUGSAT 1 03 Mar 00:10:36 00:14:00 24° 291° (WNW) 00:17:16 437.445
GONETS M04 03 Mar 00:11:35 00:16:38 16° 303° (WNW) 00:21:10
DUCHIFAT 1 03 Mar 00:20:36 00:23:11 15° 294° (WNW) 00:25:35 145.980
DANDE 03 Mar 00:45:48 00:52:10 40° 283° (WNW) 00:57:02 436.750
Oscar 19 03 Mar 00:49:22 00:53:51 31° 95° (E) 00:58:24 437.125/150
SWISSCUBE 03 Mar 01:01:55 01:06:37 56° 260° (W) 01:11:21 437.505
BEESAT 3 03 Mar 01:04:39 01:08:14 28° 48° (NE) 01:11:49 437.485
RS-15 03 Mar 01:05:38 01:15:52 42° 320° (NW) 01:26:12 29.354- 29.394
BEESAT 03 Mar 01:10:36 01:15:13 49° 260° (W) 01:19:53 436.000
CUSAT 1 03 Mar 01:17:07 01:20:56 17° 288° (WNW) 01:24:01 437.405
KKS-1 03 Mar 01:18:28 01:22:36 38° 71° (ENE) 01:26:47 437.445
STARS 03 Mar 01:24:40 01:28:28 29° 69° (ENE) 01:32:20 437.465
AIST 2 03 Mar 01:29:25 01:32:30 19° 43° (NE) 01:35:37 435.215
BEESAT 2 03 Mar 01:30:13 01:34:11 41° 52° (NE) 01:38:07 435.950
SO-50 03 Mar 01:35:19 01:39:55 89° 301° (WNW) 01:44:42 436.795
ITUPSAT 1 03 Mar 01:38:52 01:42:57 27° 265° (W) 01:46:59 437.325
Gurwin Techsat 1B 03 Mar 02:00:59 02:05:53 37° 97° (E) 02:10:49 435.225
YUBILEINY 03 Mar 02:11:02 02:19:03 38° 70° (ENE) 02:27:10 435.215
ITAMSAT 1 03 Mar 02:27:02 02:32:17 86° 100° (E) 02:37:31 435.822/435.867
Oscar 19 03 Mar 02:28:40 02:33:12 32° 292° (WNW) 02:37:40 437.125/150
AO-7 03 Mar 02:30:13 02:34:12 15° 86° (E) 02:38:48 29.400- 29.500
MOZHAYETS 4 03 Mar 02:34:19 02:36:07 13° 63° (ENE) 02:38:09
BEESAT 3 03 Mar 02:42:42 02:46:19 29° 245° (WSW) 02:49:49 437.485
KKS-1 03 Mar 02:56:05 02:59:26 20° 268° (W) 03:02:39 437.445
STARS 03 Mar 03:01:13 03:04:57 26° 265° (W) 03:08:37 437.465
AIST 2 03 Mar 03:07:16 03:11:26 51° 242° (WSW) 03:15:29 435.215
BEESAT 2 03 Mar 03:09:09 03:12:06 18° 248° (WSW) 03:14:54 435.950
HORYU 2 03 Mar 03:12:54 03:17:13 49° 99° (E) 03:21:33 437.375
SO-50 03 Mar 03:18:27 03:21:15 15° 323° (NW) 03:23:58 436.795
RS-15 03 Mar 03:24:33 03:32:24 21° 353° (N) 03:40:20 29.354- 29.394
M-CUBED/EXP-1 PRIME 03 Mar 03:34:10 03:37:26 61° 254° (WSW) 03:40:50 437.505
AUBIESAT-1 03 Mar 03:35:49 03:39:06 67° 253° (WSW) 03:42:31 437.475
Gurwin Techsat 1B 03 Mar 03:41:13 03:45:45 28° 293° (WNW) 03:50:11 435.225
JAS-2 03 Mar 04:03:01 04:10:20 55° 99° (E) 04:18:01 435.910
YUBILEINY 03 Mar 04:07:44 04:16:08 48° 271° (W) 04:24:23 435.215
MOZHAYETS 4 03 Mar 04:08:17 04:12:50 70° 259° (WSW) 04:17:26
ITAMSAT 1 03 Mar 04:08:43 04:11:09 13° 300° (WNW) 04:13:19 435.822/435.867
AO-7 03 Mar 04:20:08 04:28:29 80° 107° (ESE) 04:36:47 29.400- 29.500
CUBESAT XI-V 03 Mar 04:32:56 04:35:56 18° 65° (ENE) 04:39:07 437.345
PCSat 03 Mar 04:39:39 04:44:25 31° 50° (NE) 04:49:14 145.827
STRAND 1 03 Mar 04:47:48 04:51:07 18° 63° (ENE) 04:54:38 437.568
HORYU 2 03 Mar 04:50:40 04:53:33 17° 295° (WNW) 04:56:16 437.375
PRISM 03 Mar 05:06:12 05:10:00 37° 71° (ENE) 05:13:53 437.425
RS-15 03 Mar 05:40:36 05:49:54 29° 27° (NNE) 05:59:43 29.354- 29.394
JAS-2 03 Mar 05:48:35 05:55:06 34° 294° (WNW) 06:01:47 435.910
Cubesat XI-IV 03 Mar 05:56:59 06:02:11 48° 99° (E) 06:07:21 437.490
CUTE-I 03 Mar 06:05:47 06:11:04 57° 100° (E) 06:16:20 437.470
CUBESAT XI-V 03 Mar 06:08:28 06:13:02 51° 261° (W) 06:17:39 437.345
AO-7 03 Mar 06:14:08 06:20:31 25° 305° (NW) 06:26:38 29.400- 29.500
PCSat 03 Mar 06:22:54 06:27:58 40° 248° (WSW) 06:32:57 145.827
STRAND 1 03 Mar 06:24:50 06:29:54 59° 259° (W) 06:35:01 437.568
AIST 1 03 Mar 06:33:22 06:37:28 43° 93° (E) 06:41:39
PRISM 03 Mar 06:42:48 06:45:42 18° 268° (W) 06:48:29 437.425
HO-68 03 Mar 07:08:14 07:10:12 11° 84° (E) 07:12:45 435.675
Cubesat XI-IV 03 Mar 07:37:48 07:42:01 23° 295° (WNW) 07:46:04 437.490
CUTE-I 03 Mar 07:46:55 07:50:46 20° 297° (WNW) 07:54:27 437.470
SEEDS 03 Mar 07:49:12 07:51:09 13° 89° (E) 07:53:19 437.485
CANX-2 03 Mar 07:52:25 07:55:27 19° 92° (E) 07:58:35 2200.000
RS-15 03 Mar 07:53:08 08:04:36 77° 55° (NE) 08:16:36 29.354- 29.394
BRITE-PL 03 Mar 08:04:16 08:08:30 39° 96° (E) 08:12:31 437.365/2234.400
GOMX 1 03 Mar 08:06:34 08:10:13 26° 94° (E) 08:13:47 467.674
ISS 03 Mar 08:07:47 08:10:44 34° 137° (SE) 08:13:43 145.825
CUTE 1.7 + AOD 2 03 Mar 08:10:28 08:14:07 27° 95° (E) 08:17:48 437.475
AIST 1 03 Mar 08:12:38 08:15:26 16° 291° (WNW) 08:18:07
O/OREOS (USA 219) 03 Mar 08:13:25 08:17:01 24° 103° (ESE) 08:20:43 437.305
GONETS M04 03 Mar 08:19:38 08:28:09 54° 76° (ENE) 08:36:44
SO-50 03 Mar 08:27:46 08:30:27 15° 36° (NE) 08:33:18 436.795
DOVE 4 03 Mar 08:38:26 08:42:27 40° 97° (E) 08:46:22 437.250
CINEMA 3 03 Mar 08:42:38 08:45:56 23° 94° (E) 08:49:17 145.822/145.860
NANOSAT C BR1 03 Mar 08:47:43 08:48:42 11° 63° (ENE) 08:49:54 145.865
Oscar 11 03 Mar 08:49:04 08:52:23 21° 93° (E) 08:55:46 145.826/435.025
AAUSAT CUBESAT 2 03 Mar 08:51:53 08:55:57 48° 99° (E) 09:00:02 437.432
HO-68 03 Mar 08:52:05 08:59:18 74° 105° (ESE) 09:06:30 435.675
COMPASS 1 03 Mar 08:54:52 08:59:02 61° 100° (E) 09:03:13 437.405
CUBEBUG 2 03 Mar 08:59:36 09:02:35 20° 93° (E) 09:05:42 437.445
UNISAT 6 03 Mar 09:05:20 09:09:09 30° 70° (ENE) 09:12:59 437.425
DX 1 03 Mar 09:14:37 09:17:39 19° 92° (E) 09:20:48 434.975-435.025
QB50P1 03 Mar 09:18:06 09:21:27 23° 68° (ENE) 09:24:54 145.935-145.965
QB50P2 03 Mar 09:21:58 09:25:30 26° 69° (ENE) 09:29:05 145.880/145.840
SEEDS 03 Mar 09:23:13 09:27:21 51° 286° (WNW) 09:31:27 437.485
BUGSAT 1 03 Mar 09:25:28 09:28:38 21° 68° (ENE) 09:31:54 437.445
CANX-2 03 Mar 09:27:38 09:31:32 35° 288° (WNW) 09:35:24 2200.000
TIGRISAT 03 Mar 09:29:36 09:33:53 54° 74° (ENE) 09:38:08 435.000
VELOX 1 03 Mar 09:31:26 09:32:37 11° 88° (E) 09:34:03 145.980
FUNcube-1 03 Mar 09:34:39 09:38:22 32° 96° (E) 09:42:08 145.935
HUMSAT D 03 Mar 09:35:18 09:37:59 17° 92° (E) 09:40:47 437.325/437.525
ZACube-1 03 Mar 09:36:05 09:39:52 34° 97° (E) 09:43:41 437.345
DUCHIFAT 1 03 Mar 09:36:06 09:39:59 35° 71° (ENE) 09:43:54 145.980
UKube-1 03 Mar 09:42:41 09:46:41 36° 97° (E) 09:50:41 .
ANTELSAT 03 Mar 09:43:25 09:47:50 80° 77° (ENE) 09:52:10 437.575/2403.000
BRITE-PL 03 Mar 09:43:31 09:46:46 19° 295° (WNW) 09:49:46 437.365/2234.400
ISS 03 Mar 09:44:16 09:47:11 30° 334° (NNW) 09:50:06 145.825
GOMX 1 03 Mar 09:44:42 09:48:21 25° 292° (WNW) 09:51:47 467.674
CUTE 1.7 + AOD 2 03 Mar 09:46:28 09:49:58 25° 291° (WNW) 09:53:26 437.475
O/OREOS (USA 219) 03 Mar 09:52:08 09:56:18 33° 300° (WNW) 10:00:28 437.305
DELFI C3 03 Mar 09:55:58 10:00:04 82° 284° (WNW) 10:04:10 145.870
UWE-3 03 Mar 09:56:25 10:00:35 74° 101° (ESE) 10:04:45 435.000/436.395/437.385
POLYITAN 1 03 Mar 09:56:41 10:00:55 62° 75° (ENE) 10:05:11 437.675
POPSAT HIP 1 03 Mar 09:56:52 10:01:06 61° 74° (ENE) 10:05:22 437.405
RS-15 03 Mar 10:06:36 10:16:14 30° 254° (WSW) 10:25:43 29.354- 29.394
SO-50 03 Mar 10:06:54 10:11:52 79° 56° (ENE) 10:16:48 436.795
CUSAT 1 03 Mar 10:12:01 10:14:00 19° 74° (ENE) 10:16:04 437.405
GONETS M04 03 Mar 10:17:05 10:24:41 33° 275° (W) 10:32:04
DOVE 4 03 Mar 10:17:08 10:19:58 17° 294° (WNW) 10:22:37 437.250
CINEMA 3 03 Mar 10:19:37 10:23:12 27° 290° (WNW) 10:26:42 145.822/145.860
NANOSAT C BR1 03 Mar 10:19:46 10:24:03 73° 258° (WSW) 10:28:20 145.865
Oscar 11 03 Mar 10:24:44 10:28:39 33° 289° (WNW) 10:32:30 145.826/435.025
AAUSAT CUBESAT 2 03 Mar 10:28:49 10:31:15 15° 294° (WNW) 10:33:33 437.432
COMPASS 1 03 Mar 10:32:31 10:34:19 12° 295° (WNW) 10:35:55 437.405
CUBEBUG 2 03 Mar 10:35:42 10:39:26 32° 289° (WNW) 10:43:08 437.445
HO-68 03 Mar 10:41:00 10:46:25 23° 302° (WNW) 10:51:37 435.675
UNISAT 6 03 Mar 10:42:24 10:46:00 23° 266° (W) 10:49:28 437.425
DX 1 03 Mar 10:50:01 10:54:06 38° 289° (WNW) 10:58:07 434.975-435.025
QB50P1 03 Mar 10:53:24 10:57:14 30° 264° (W) 11:01:01 145.935-145.965
AISAT 03 Mar 10:56:05 11:00:34 81° 284° (WNW) 11:04:58 437.250
CUBEBUG 1 03 Mar 10:57:23 11:01:36 43° 98° (E) 11:05:47 437.445
QB50P2 03 Mar 10:57:40 11:01:22 27° 265° (W) 11:05:00 145.880/145.840
50 SAT 03 Mar 10:59:50 11:03:46 68° 284° (WNW) 11:07:41 437.505
BUGSAT 1 03 Mar 11:00:01 11:03:57 34° 263° (W) 11:07:51 437.445
VELOX 1 03 Mar 11:05:19 11:09:45 66° 286° (WNW) 11:14:07 145.980
TIGRISAT 03 Mar 11:08:50 11:11:03 13° 270° (W) 11:13:01 435.000
HUMSAT D 03 Mar 11:10:09 11:13:57 37° 288° (WNW) 11:17:44 437.325/437.525
FUNcube-1 03 Mar 11:11:26 11:14:34 20° 292° (WNW) 11:17:37 145.935
DUCHIFAT 1 03 Mar 11:12:46 11:15:58 20° 268° (W) 11:19:03 145.980
ZACube-1 03 Mar 11:13:02 11:16:05 20° 292° (WNW) 11:19:01 437.345
UKube-1 03 Mar 11:19:21 11:22:39 21° 293° (WNW) 11:25:50 .
ISS 03 Mar 11:22:42 11:24:23 13° 354° (N) 11:26:03 145.825
ESTCUBE 1 03 Mar 11:23:21 11:27:56 88° 286° (WNW) 11:32:29 437.505/2401.250
SPROUT 03 Mar 11:27:22 11:30:46 23° 94° (E) 11:34:13 437.525
TISAT 1 03 Mar 11:28:56 11:32:07 21° 93° (E) 11:35:22 437.305
DANDE 03 Mar 11:29:01 11:31:18 25° 265° (W) 11:33:32 436.750
POLYITAN 1 03 Mar 11:35:55 11:37:21 11° 272° (W) 11:38:31 437.675
POPSAT HIP 1 03 Mar 11:35:58 11:37:30 11° 272° (W) 11:38:45 437.405
SO-50 03 Mar 11:49:36 11:51:53 13° 251° (WSW) 11:53:53 436.795
Oscar 19 03 Mar 12:06:01 12:10:51 44° 71° (ENE) 12:15:45 437.125/150
ITAMSAT 1 03 Mar 12:07:54 12:11:06 17° 63° (ENE) 12:14:30 435.822/435.867
CUBEBUG 1 03 Mar 12:34:39 12:37:41 18° 294° (WNW) 12:40:33 437.445
ISS 03 Mar 12:59:40 13:01:48 16° 14° (NNE) 13:03:56 145.825
SWISSCUBE 03 Mar 13:02:33 13:07:01 37° 97° (E) 13:11:29 437.505
SPROUT 03 Mar 13:03:07 13:06:54 30° 290° (WNW) 13:10:37 437.525
TISAT 1 03 Mar 13:04:14 13:08:01 32° 290° (WNW) 13:11:44 437.305
BEESAT 03 Mar 13:10:58 13:15:31 42° 98° (E) 13:20:04 436.000
Gurwin Techsat 1B 03 Mar 13:21:51 13:27:02 58° 73° (ENE) 13:32:17 435.225
AO-7 03 Mar 13:28:46 13:34:58 25° 55° (NE) 13:41:25 29.400- 29.500
ITUPSAT 1 03 Mar 13:38:40 13:43:31 79° 103° (ESE) 13:48:21 437.325
ITAMSAT 1 03 Mar 13:44:57 13:50:08 65° 258° (WSW) 13:55:21 435.822/435.867
Oscar 19 03 Mar 13:46:29 13:50:28 22° 268° (W) 13:54:19 437.125/150
HORYU 2 03 Mar 14:11:12 14:15:25 44° 72° (ENE) 14:19:39 437.375
JAS-2 03 Mar 14:17:33 14:21:27 20° 60° (ENE) 14:25:50 435.910
ISS 03 Mar 14:35:33 14:38:45 58° 33° (NNE) 14:41:57 145.825
SWISSCUBE 03 Mar 14:40:49 14:44:42 24° 293° (WNW) 14:48:28 437.505
KKS-1 03 Mar 14:45:55 14:50:24 81° 103° (ESE) 14:54:49 437.445
BEESAT 03 Mar 14:49:27 14:53:08 22° 294° (WNW) 14:56:41 436.000
STARS 03 Mar 14:50:21 14:54:42 58° 101° (E) 14:59:00 437.465
Gurwin Techsat 1B 03 Mar 15:03:54 15:07:29 18° 270° (W) 15:10:52 435.225
YUBILEINY 03 Mar 15:11:51 15:19:49 43° 88° (E) 15:27:59 435.215
AO-7 03 Mar 15:18:38 15:27:01 80° 254° (WSW) 15:35:24 29.400- 29.500
ITUPSAT 1 03 Mar 15:18:45 15:20:51 12° 298° (WNW) 15:22:42 437.325
Cubesat XI-IV 03 Mar 15:43:43 15:44:53 11° 58° (ENE) 15:46:22 437.490
HORYU 2 03 Mar 15:49:26 15:52:21 17° 269° (W) 15:55:07 437.375
VERMONT LUNAR 03 Mar 15:50:11 15:51:46 13° 148° (SSE) 15:53:27 437.305
CUTE-I 03 Mar 15:51:19 15:53:30 13° 60° (ENE) 15:55:57 437.470
JAS-2 03 Mar 16:00:32 16:05:57 62° 260° (W) 16:12:03 435.910
MOZHAYETS 4 03 Mar 16:03:58 16:07:55 28° 94° (E) 16:11:56
ISS 03 Mar 16:12:51 16:14:53 15° 228° (SW) 16:16:51 145.825
KKS-1 03 Mar 16:25:31 16:26:28 10° 298° (WNW) 16:27:08 437.445
STARS 03 Mar 16:28:24 16:30:45 14° 296° (WNW) 16:32:54 437.465
BEESAT 3 03 Mar 16:35:39 16:39:36 51° 118° (ESE) 16:43:38 437.485
AIST 1 03 Mar 16:42:41 16:44:08 12° 66° (ENE) 16:45:49
M-CUBED/EXP-1 PRIME 03 Mar 16:49:27 16:53:44 82° 287° (WNW) 16:58:20 437.505
AUBIESAT-1 03 Mar 16:50:36 16:54:54 89° 289° (WNW) 16:59:31 437.475
BEESAT 2 03 Mar 17:02:06 17:06:13 86° 122° (ESE) 17:10:25 435.950
AIST 2 03 Mar 17:05:16 17:09:05 34° 115° (ESE) 17:13:01 435.215
YUBILEINY 03 Mar 17:08:30 17:16:42 42° 288° (WNW) 17:24:53 435.215
AO-7 03 Mar 17:16:37 17:21:16 15° 274° (W) 17:25:19 29.400- 29.500
Cubesat XI-IV 03 Mar 17:18:51 17:24:12 77° 75° (ENE) 17:29:37 437.490
VERMONT LUNAR 03 Mar 17:25:50 17:29:12 46° 162° (SSE) 17:32:34 437.305
CUTE-I 03 Mar 17:27:31 17:32:53 90° 216° (SW) 17:38:20 437.470
PHONESAT 2.4 03 Mar 17:36:49 17:40:06 33° 157° (SSE) 17:43:25 2401.200-2431.200
HO-68 03 Mar 17:39:37 17:40:45 11° 50° (NE) 17:42:19 435.675
MOZHAYETS 4 03 Mar 17:41:06 17:45:08 29° 291° (WNW) 17:49:06
CUBESAT XI-V 03 Mar 18:05:25 18:09:51 40° 97° (E) 18:14:17 437.345
BEESAT 3 03 Mar 18:15:04 18:18:01 18° 317° (NW) 18:20:55 437.485
AIST 1 03 Mar 18:17:59 18:22:23 63° 265° (W) 18:26:42
O/OREOS (USA 219) 03 Mar 18:22:36 18:27:01 45° 63° (ENE) 18:31:25 437.305
PRISM 03 Mar 18:24:01 18:28:14 64° 101° (E) 18:32:25 437.425
AUBIESAT-1 03 Mar 18:28:45 18:29:18 10° 301° (WNW) 18:29:36 437.475
STRAND 1 03 Mar 18:35:32 18:40:30 47° 99° (E) 18:45:27 437.568
BEESAT 2 03 Mar 18:42:58 18:45:02 13° 321° (NW) 18:46:59 435.950
AIST 2 03 Mar 18:44:08 18:47:46 26° 313° (NW) 18:51:24 435.215
CANX-2 03 Mar 18:46:29 18:48:44 15° 66° (ENE) 18:51:09 2200.000
Cubesat XI-IV 03 Mar 19:02:26 19:05:02 13° 273° (W) 19:07:19 437.490
VERMONT LUNAR 03 Mar 19:03:29 19:07:00 84° 179° (S) 19:10:30 437.305
CUTE 1.7 + AOD 2 03 Mar 19:04:00 19:07:04 20° 68° (ENE) 19:10:15 437.475
CUTE-I 03 Mar 19:12:30 19:13:51 11° 274° (W) 19:14:49 437.470
BRITE-PL 03 Mar 19:13:34 19:19:00 51° 73° (ENE) 19:24:14 437.365/2234.400
GOMX 1 03 Mar 19:13:37 19:18:24 35° 71° (ENE) 19:23:02 467.674
PHONESAT 2.4 03 Mar 19:14:43 19:18:21 78° 173° (S) 19:22:00 2401.200-2431.200
HO-68 03 Mar 19:20:13 19:27:05 55° 68° (ENE) 19:34:03 435.675
PCSat 03 Mar 19:21:49 19:26:12 26° 109° (ESE) 19:30:43 145.827
AAUSAT CUBESAT 2 03 Mar 19:43:03 19:46:43 32° 71° (ENE) 19:50:27 437.432
DOVE 4 03 Mar 19:43:11 19:48:03 46° 73° (ENE) 19:52:44 437.250
CUBESAT XI-V 03 Mar 19:43:28 19:47:04 21° 293° (WNW) 19:50:33 437.345
CINEMA 3 03 Mar 19:44:13 19:48:02 25° 69° (ENE) 19:51:47 145.822/145.860
Oscar 11 03 Mar 19:44:32 19:47:19 18° 67° (ENE) 19:50:15 145.826/435.025
COMPASS 1 03 Mar 19:46:18 19:50:10 40° 73° (ENE) 19:54:06 437.405
CUBEBUG 2 03 Mar 19:58:14 20:01:18 19° 68° (ENE) 20:04:26 437.445
PRISM 03 Mar 20:01:30 20:03:16 12° 296° (WNW) 20:04:51 437.425
O/OREOS (USA 219) 03 Mar 20:03:00 20:06:07 18° 259° (WSW) 20:09:02 437.305
DX 1 03 Mar 20:10:41 20:13:32 18° 66° (ENE) 20:16:31 434.975-435.025
SEEDS 03 Mar 20:15:02 20:19:13 76° 258° (WSW) 20:23:25 437.485
STRAND 1 03 Mar 20:15:29 20:19:25 22° 295° (WNW) 20:23:12 437.568
CANX-2 03 Mar 20:20:13 20:24:19 49° 261° (W) 20:28:26 2200.000
HUMSAT D 03 Mar 20:28:24 20:30:21 13° 66° (ENE) 20:32:30 437.325/437.525
VELOX 1 03 Mar 20:29:44 20:31:07 11° 62° (ENE) 20:32:42 145.980
FUNcube-1 03 Mar 20:30:41 20:34:18 27° 70° (ENE) 20:37:57 145.935
ZACube-1 03 Mar 20:32:15 20:35:58 28° 70° (ENE) 20:39:41 437.345
UKube-1 03 Mar 20:37:42 20:41:30 31° 70° (ENE) 20:45:23 .
CUTE 1.7 + AOD 2 03 Mar 20:38:59 20:42:49 33° 264° (W) 20:46:39 437.475
VERMONT LUNAR 03 Mar 20:41:25 20:44:50 55° 196° (SSW) 20:48:15 437.305
DELFI C3 03 Mar 20:43:43 20:47:40 59° 75° (ENE) 20:51:40 145.870
GOMX 1 03 Mar 20:51:51 20:56:32 29° 265° (W) 21:00:59 467.674
PHONESAT 2.4 03 Mar 20:53:09 20:56:47 72° 190° (S) 21:00:24 2401.200-2431.200
UWE-3 03 Mar 20:53:19 20:57:41 60° 75° (ENE) 21:01:57 435.000/436.395/437.385
BRITE-PL 03 Mar 20:53:25 20:57:46 22° 269° (W) 21:01:51 437.365/2234.400
PCSat 03 Mar 21:04:15 21:09:25 44° 306° (NW) 21:14:37 145.827
HO-68 03 Mar 21:09:08 21:15:13 28° 267° (W) 21:21:08 435.675
Oscar 11 03 Mar 21:19:08 21:23:13 42° 262° (W) 21:27:20 145.826/435.025
AAUSAT CUBESAT 2 03 Mar 21:19:22 21:22:29 20° 268° (W) 21:25:30 437.432
GONETS M04 03 Mar 21:20:12 21:28:40 62° 92° (E) 21:37:13
CINEMA 3 03 Mar 21:20:47 21:25:08 33° 263° (W) 21:29:17 145.822/145.860
DOVE 4 03 Mar 21:22:10 21:26:01 21° 268° (W) 21:29:38 437.250
COMPASS 1 03 Mar 21:23:28 21:26:08 16° 269° (W) 21:28:38 437.405
TIGRISAT 03 Mar 21:24:04 21:24:52 11° 88° (E) 21:25:56 435.000
CUBEBUG 2 03 Mar 21:33:30 21:37:47 41° 262° (W) 21:41:56 437.445
ANTELSAT 03 Mar 21:36:45 21:39:21 16° 91° (E) 21:42:09 437.575/2403.000
DX 1 03 Mar 21:45:16 21:49:29 44° 261° (W) 21:53:43 434.975-435.025
50 SAT 03 Mar 21:46:09 21:50:06 69° 76° (ENE) 21:54:03 437.505
CUBEBUG 1 03 Mar 21:53:28 21:57:32 37° 71° (ENE) 22:01:40 437.445
AISAT 03 Mar 21:53:41 21:58:11 89° 77° (ENE) 22:02:43 437.250
HUMSAT D 03 Mar 22:01:39 22:05:47 54° 260° (W) 22:09:51 437.325/437.525
